Location: Amherst
(42.5000°N, 72.5000°W)
Time: 16:26:38
(UTC-04:00)

ISS - Pass Details

Date: 19 March 2018
Orbit: 403 x 408 km, 51.6° (Epoch: 20 September)

Event Time Altitude Azimuth Distance (km) Brightness Sun altitude
Exits shadow 04:03:03 - 93° (E) 1,584 -0.2 -31.0°
Enters shadow 05:05:35 -56° 305° (NW) 11,106 3.4 -20.7°
Maximum altitude 05:36:24 37° 222° (SW) 655 -3.2 -15.2°
